Cape Girardeau, MO

4:58 AM CDT on April 25, 2018 (GMT -0500)
Cape Girardeau Regional

Weather History for KCGI - March, 2012

Change the Weather History Date:

Friday, March 9, 2012

  Actual Average Record
Temperature  
Mean Temperature 47 °F 45 °F  
Max Temperature 60 °F 56 °F 78 °F (1974)
Min Temperature 34 °F 34 °F 16 °F (1996)
Degree Days  
Heating Degree Days 18    
Month to date heating degree days 143  
Since 1 July heating degree days 3062  
Cooling Degree Days 0    
Month to date cooling degree days 0  
Year to date cooling degree days 0  
Moisture  
Dew Point 27 °F    
Average Humidity 56    
Maximum Humidity 82    
Minimum Humidity 30    
Precipitation  
Precipitation 0.00 in 0.12 in 3.57 in (2006)
Month to date precipitation 1.37 1.13  
Year to date precipitation 6.25 8.01  
Sea Level Pressure  
Sea Level Pressure 30.48 in    
Wind  
Wind Speed 8 mph (North)    
Max Wind Speed 24 mph    
Max Gust Speed 28 mph    
Visibility 10 miles    
Events      
T = Trace of Precipitation, MM = Missing Value Source: NWS Daily Summary

Daily Weather History Graph

Daily Weather History Graph

Search for Another Location

Airport or City:

Astronomy

Mar. 09, 2012 Rise Set
Actual Time 6:17 AM CST 6:00 PM CST
Civil Twilight 5:51 AM CST 6:26 PM CST
Nautical Twilight 5:21 AM CST 6:56 PM CST
Astronomical Twilight 4:50 AM CST 7:27 PM CST
Moon 7:56 PM CST (3/9) 6:39 AM CST (3/9)
Length of Visible Light 12h 35m
Length of Day
11h 43m
Full, 97% of the Moon is Illuminated
Mar 9
Full
Mar 14
Last Quarter
Mar 22
New
Mar 30
First Quarter
Apr 6
Full

Hourly Weather History & Observations

Time (CST) Temp. Windchill Dew Point Humidity Pressure Visibility Wind Dir Wind Speed Gust Speed Precip Events Conditions
12:53 AM 36.0 °F 31.1 °F 30.0 °F 79% 30.44 in 10.0 mi NNW 5.8 mph - N/A   Clear
1:53 AM 36.0 °F 30.3 °F 28.9 °F 76% 30.45 in 10.0 mi North 6.9 mph - N/A   Clear
2:53 AM 37.0 °F 34.5 °F 27.0 °F 67% 30.45 in 10.0 mi NNW 3.5 mph - N/A   Clear
3:53 AM 37.0 °F 29.8 °F 27.0 °F 67% 30.45 in 10.0 mi North 10.4 mph - N/A   Clear
4:53 AM 37.9 °F 35.5 °F 24.1 °F 57% 30.46 in 10.0 mi Variable 3.5 mph - N/A   Clear
5:53 AM 39.0 °F 32.3 °F 24.1 °F 55% 30.47 in 10.0 mi North 10.4 mph - N/A   Clear
6:53 AM 37.0 °F - 26.1 °F 65% 30.49 in 10.0 mi Calm Calm - N/A   Clear
7:53 AM 44.1 °F 40.1 °F 26.1 °F 49% 30.50 in 10.0 mi North 6.9 mph - N/A   Clear
8:53 AM 48.9 °F - 27.0 °F 43% 30.51 in 10.0 mi North 10.4 mph - N/A   Clear
9:53 AM 52.0 °F - 28.9 °F 41% 30.52 in 10.0 mi North 11.5 mph - N/A   Clear
10:53 AM 54.0 °F - 27.0 °F 35% 30.51 in 10.0 mi North 16.1 mph 27.6 mph N/A   Clear
11:53 AM 55.9 °F - 28.9 °F 36% 30.49 in 10.0 mi North 20.7 mph 25.3 mph N/A   Clear
12:53 PM 57.9 °F - 30.0 °F 35% 30.48 in 10.0 mi North 13.8 mph 23.0 mph N/A   Clear
1:53 PM 59.0 °F - 30.9 °F 35% 30.47 in 10.0 mi North 17.3 mph 21.9 mph N/A   Clear
2:53 PM 59.0 °F - 28.0 °F 31% 30.47 in 10.0 mi North 13.8 mph - N/A   Clear
3:53 PM 57.0 °F - 26.1 °F 30% 30.46 in 10.0 mi NNE 15.0 mph - N/A   Clear
4:53 PM 55.0 °F - 27.0 °F 34% 30.45 in 10.0 mi NNE 9.2 mph - N/A   Clear
5:53 PM 51.1 °F - 21.9 °F 32% 30.46 in 10.0 mi North 12.7 mph - N/A   Clear
6:53 PM 46.0 °F 43.1 °F 26.1 °F 46% 30.48 in 10.0 mi NNE 5.8 mph - N/A   Clear
7:53 PM 44.1 °F - 27.0 °F 51% 30.49 in 10.0 mi Calm Calm - N/A   Clear
8:53 PM 41.0 °F 38.0 °F 28.0 °F 60% 30.49 in 10.0 mi ENE 4.6 mph - N/A   Clear
9:53 PM 41.0 °F 39.0 °F 25.0 °F 53% 30.49 in 10.0 mi ENE 3.5 mph - N/A   Clear
10:53 PM 39.0 °F - 26.1 °F 60% 30.51 in 10.0 mi Calm Calm - N/A   Clear
11:53 PM 36.0 °F - 28.0 °F 73% 30.51 in 10.0 mi Calm Calm - N/A   Clear